KOSEN 1
1 49402U 21102H   25318.85065078  .00010306  00000-0  44016-3 0  9991
2 49402  97.3524   0.3285 0013385 240.9115 119.0782 15.22984768221354
HO-113
1 50466U 21131B   25318.87720105  .00001188  00000-0  38303-3 0  9996
2 50466  98.5066  47.4384 0004560  36.2788 323.8709 14.41057509204246
SNUGLITE 2
1 52899U 22065F   25318.84416485  .00002488  00000-0  48665-3 0  9991
2 52899  98.1901  99.5396 0007054 345.3938  14.7060 14.63723818179632
UmKA 1 (RS40S)
1 57172U 23091G   25318.85694897  .00009142  00000-0  45621-3 0  9999
2 57172  97.5387  13.4474 0014606 141.6740 218.5534 15.17644084131469
CubeBel-2 (EU11S)
1 57175U 23091K   25318.80711650  .00015271  00000-0  64920-3 0  9997
2 57175  97.5386  15.6451 0012005 144.4024 215.8016 15.23065761131604
SONATE-2
1 59112U 24043Q   25318.33179992  .00030664  00000-0  69311-3 0  9995
2 59112  97.5313  93.5708 0008828 267.8057  92.2179 15.43083855 94590
MO-122
1 60209U 24125G   25318.55106656  .00032932  00000-0  71985-3 0  9996
2 60209  97.2563 168.9456 0014045 291.0303  68.9443 15.43999825 76251
GRBBeta
1 60237U 24128C   25318.50582154  .00007363  00000-0  52107-3 0  9991
2 60237  61.9901 248.2957 0057014  90.7246 270.0379 15.04373130 73946
Curium One
1 60242U 24128H   25318.49190601  .00012356  00000-0  77818-3 0  9991
2 60242  61.9797 243.8654 0056898  87.5722 273.1884 15.08189587 74022
ROBUSTA-3A
1 60243U 24128J   25318.28473866  .00013845  00000-0  88488-3 0  9995
2 60243  61.9871 246.0075 0056671  85.0203 275.7356 15.07583425 73977
CatSat
1 60246U 24125J   25318.13389739  .00063281  00000-0  16543-2 0  9995
2 60246  97.2368 165.8745 0034037 250.5007 109.2560 15.37938511 74127
HYPERVIEW-1G (RS66S)
1 61772U 24199AP  25318.91723819  .00050192  00000-0  10577-2 0  9996
2 61772  97.3247 188.0597 0011017 355.0721   5.0418 15.45030449101317
AO-123
1 61781U 24199AY  25318.90484404  .00011985  00000-0  39869-3 0  9992
2 61781  97.3282 184.6713 0015155   2.9295 357.2032 15.31196186101083
ZIMSAT 2
1 61783U 24199BA  25318.89293682  .00149498  00000-0  16567-2 0  9998
2 61783  97.3159 190.7118 0007493 357.2986   2.8231 15.62449990104641
HADES-R (SO-124)
1 62690U 25009CK  25318.17392810  .00137020  00000-0  24345-2 0  9992
2 62690  97.3934  39.9050 0003103 249.6253 110.4665 15.49685990 46340
HYDRA-T
1 62692U 25009CM  25318.17686883  .00146455  00000-0  25106-2 0  9998
2 62692  97.3940  40.0531 0002898 247.4769 112.6177 15.50669153 46352
JINJUSat 1B
1 63210U 25052A   25318.52447325  .00020255  00000-0  80169-3 0  9998
2 63210  97.4208 210.8811 0005701 108.7910 251.3947 15.25461321 37285
NUSHSAT 1
1 63211U 25052B   25318.66845146  .00022078  00000-0  85100-3 0  9992
2 63211  97.4192 211.1113 0005521 112.0006 248.1820 15.26328045 37315
TEVEL2-4
1 63213U 25052D   25318.65786245  .00021517  00000-0  84415-3 0  9992
2 63213  97.4109 210.7092 0004316 119.3436 240.8234 15.25749036 37307
TEVEL2-5
1 63214U 25052E   25318.66208505  .00020899  00000-0  82155-3 0  9993
2 63214  97.4111 210.7044 0004311 120.2279 239.9386 15.25688505 37309
TEVEL2-6
1 63215U 25052F   25318.66851544  .00020988  00000-0  82620-3 0  9997
2 63215  97.4109 210.6999 0004415 120.0848 240.0828 15.25640593 37309
TEVEL2-1
1 63217U 25052H   25318.63985106  .00020456  00000-0  81270-3 0  9998
2 63217  97.4085 210.5052 0004115 127.4669 232.6944 15.25339216 37293
TEVEL2-3
1 63218U 25052J   25317.13055403  .00034057  00000-0  13523-2 0  9998
2 63218  97.4083 209.0153 0003873 135.8736 224.2812 15.25251467 37062
TEVEL2-2
1 63219U 25052K   25318.18142209  .00024296  00000-0  96486-3 0  9990
2 63219  97.4087 210.0510 0004009 131.6529 228.5053 15.25317701 37228
TEVEL2-9
1 63237U 25052AD  25318.44542161  .00021078  00000-0  87333-3 0  9996
2 63237  97.4150 210.0585 0007087 164.1644 195.9816 15.23906352 37238
TEVEL2-7
1 63238U 25052AE  25318.45673446  .00020565  00000-0  85554-3 0  9992
2 63238  97.4150 210.0491 0007119 164.5352 195.6104 15.23774166 37234
TEVEL2-8
1 63239U 25052AF  25318.46187794  .00020546  00000-0  85544-3 0  9998
2 63239  97.4151 210.0401 0007127 164.8994 195.2457 15.23746850 37237
HYDRA-W
1 63490U 25052BL  25318.22151029  .00068848  00000-0  19020-2 0  9995
2 63490  97.4068 211.6982 0008994 147.6929 212.4868 15.36760403 37337
HADES-ICM (SO-125)
1 63492U 25052BN  25318.18512478  .00064915  00000-0  18802-2 0  9999
2 63492  97.4092 211.4620 0008979 154.7867 205.3817 15.35299051 37314
Dragonfly
1 65729U 98067XH  25318.36094919  .00131042  00000-0  13930-2 0  9998
2 65729  51.6290 280.0391 0004901 125.5494 234.5957 15.63091881  8714
RSP-03
1 65732U 98067XL  25318.83167963  .00108374  00000-0  12234-2 0  9992
2 65732  51.6295 277.9339 0006394 105.0838 255.0864 15.61629014  8799
GHS-01
1 65733U 98067XM  25318.28165986  .00154368  00000-0  15665-2 0  9990
2 65733  51.6302 280.2627 0005386 122.3086 237.8431 15.64181916  8710
BOTAN
1 65942U 98067XP  25318.26806544  .00099589  00000-0  13576-2 0  9994
2 65942  51.6307 282.4197 0004695  72.5108 287.6396 15.56700686  5426
CEVROSAT1
1 98526C 25248E   25306.26352486  .00003971  00000+0  19360-3 0    07
2 98526  45.4084 255.8570 0001315 254.8982 118.2631 15.17600497    10
